TimeEST,TemperatureF,Dew PointF,Humidity,Sea Level PressureIn,VisibilityMPH,Wind Direction,Wind SpeedMPH,Gust SpeedMPH,PrecipitationIn,Events,Conditions,WindDirDegrees,DateUTC
12:15 AM,53.6,51.8,94,30.05,7.0,Calm,Calm,-,N/A,,Clear,0,2012-11-21 05:15:00
12:55 AM,53.6,51.8,94,30.06,7.0,SE,6.9,-,N/A,,Clear,140,2012-11-21 05:55:00
1:15 AM,53.6,51.8,94,30.05,7.0,SSE,4.6,-,N/A,,Clear,150,2012-11-21 06:15:00
1:35 AM,53.6,51.8,94,30.04,7.0,Calm,Calm,-,N/A,,Clear,0,2012-11-21 06:35:00
1:55 AM,53.6,51.8,94,30.04,7.0,Calm,Calm,-,N/A,,Clear,0,2012-11-21 06:55:00
2:15 AM,53.6,51.8,94,30.03,5.0,Calm,Calm,-,N/A,,Clear,0,2012-11-21 07:15:00
2:35 AM,53.6,51.8,94,30.03,5.0,Calm,Calm,-,N/A,,Clear,0,2012-11-21 07:35:00
2:55 AM,53.6,51.8,94,30.03,6.0,SSE,4.6,-,N/A,,Clear,160,2012-11-21 07:55:00
3:15 AM,55.4,53.6,94,30.04,7.0,SSE,3.5,-,N/A,,Clear,150,2012-11-21 08:15:00
3:35 AM,55.4,53.6,94,30.03,6.0,South,5.8,-,N/A,,Clear,190,2012-11-21 08:35:00
3:55 AM,53.6,51.8,94,30.03,7.0,South,5.8,-,N/A,,Clear,180,2012-11-21 08:55:00
4:15 AM,53.6,51.8,94,30.03,7.0,South,5.8,-,N/A,,Clear,170,2012-11-21 09:15:00
4:35 AM,53.6,51.8,94,30.04,5.0,South,6.9,-,N/A,,Clear,180,2012-11-21 09:35:00
4:55 AM,53.6,51.8,94,30.04,5.0,South,5.8,-,N/A,,Clear,190,2012-11-21 09:55:00
5:15 AM,53.6,51.8,94,30.04,5.0,South,5.8,-,N/A,,Clear,180,2012-11-21 10:15:00
5:35 AM,53.6,51.8,94,30.05,5.0,South,5.8,-,N/A,,Clear,190,2012-11-21 10:35:00
5:55 AM,53.6,51.8,94,30.05,4.0,SSW,5.8,-,N/A,,Clear,200,2012-11-21 10:55:00
6:15 AM,53.6,51.8,94,30.05,5.0,SSW,6.9,-,N/A,,Clear,200,2012-11-21 11:15:00
6:35 AM,53.6,51.8,94,30.06,4.0,Calm,Calm,-,N/A,,Clear,0,2012-11-21 11:35:00
6:55 AM,51.8,51.8,100,30.06,5.0,South,5.8,-,N/A,,Clear,190,2012-11-21 11:55:00
7:15 AM,53.6,51.8,94,30.06,5.0,South,6.9,-,N/A,,Clear,170,2012-11-21 12:15:00
7:35 AM,53.6,51.8,94,30.07,7.0,SSE,4.6,-,N/A,,Clear,150,2012-11-21 12:35:00
7:55 AM,55.4,53.6,94,30.08,8.0,SSE,5.8,-,N/A,,Clear,150,2012-11-21 12:55:00
8:15 AM,57.2,53.6,88,30.08,8.0,SSE,4.6,-,N/A,,Clear,160,2012-11-21 13:15:00
8:35 AM,59.0,55.4,88,30.09,9.0,SSE,8.1,-,N/A,,Clear,160,2012-11-21 13:35:00
8:55 AM,60.8,55.4,82,30.09,9.0,SSE,9.2,-,N/A,,Clear,160,2012-11-21 13:55:00
9:15 AM,60.8,55.4,82,30.10,8.0,SSE,8.1,-,N/A,,Clear,160,2012-11-21 14:15:00
9:55 AM,64.4,53.6,68,30.10,10.0,South,10.4,16.1,N/A,,Clear,180,2012-11-21 14:55:00
10:15 AM,64.4,53.6,68,30.10,10.0,SSE,12.7,-,N/A,,Clear,160,2012-11-21 15:15:00
10:35 AM,66.2,51.8,60,30.10,9.0,South,11.5,16.1,N/A,,Clear,180,2012-11-21 15:35:00
10:55 AM,66.2,51.8,60,30.09,10.0,South,12.7,18.4,N/A,,Clear,190,2012-11-21 15:55:00
11:15 AM,66.2,51.8,60,30.09,9.0,South,10.4,-,N/A,,Clear,190,2012-11-21 16:15:00
11:35 AM,66.2,50.0,56,30.08,10.0,SW,11.5,-,N/A,,Clear,220,2012-11-21 16:35:00
11:55 AM,68.0,46.4,46,30.08,9.0,NNE,13.8,17.3,N/A,,Clear,20,2012-11-21 16:55:00
12:15 PM,69.8,46.4,43,30.06,8.0,West,11.5,-,N/A,,Clear,260,2012-11-21 17:15:00
12:35 PM,69.8,46.4,43,30.06,9.0,SSW,11.5,-,N/A,,Clear,200,2012-11-21 17:35:00
12:55 PM,69.8,46.4,43,30.05,9.0,WSW,12.7,-,N/A,,Clear,240,2012-11-21 17:55:00
1:15 PM,69.8,41.0,35,30.04,10.0,NNE,12.7,-,N/A,,Clear,20,2012-11-21 18:15:00
1:35 PM,69.8,44.6,40,30.04,9.0,NNE,9.2,-,N/A,,Clear,20,2012-11-21 18:35:00
1:55 PM,71.6,44.6,38,30.03,9.0,West,12.7,-,N/A,,Clear,270,2012-11-21 18:55:00
2:15 PM,71.6,42.8,35,30.03,10.0,WSW,10.4,-,N/A,,Clear,250,2012-11-21 19:15:00
2:35 PM,71.6,44.6,38,30.03,9.0,NNE,13.8,-,N/A,,Clear,20,2012-11-21 19:35:00
2:55 PM,69.8,44.6,40,30.03,9.0,NNE,11.5,17.3,N/A,,Clear,30,2012-11-21 19:55:00
3:15 PM,69.8,44.6,40,30.03,10.0,North,9.2,-,N/A,,Clear,360,2012-11-21 20:15:00
3:35 PM,69.8,44.6,40,30.04,9.0,NNE,8.1,16.1,N/A,,Clear,20,2012-11-21 20:35:00
3:55 PM,68.0,44.6,43,30.04,8.0,NNE,10.4,-,N/A,,Clear,30,2012-11-21 20:55:00
4:15 PM,66.2,44.6,46,30.04,9.0,North,12.7,16.1,N/A,,Clear,360,2012-11-21 21:15:00
4:35 PM,66.2,46.4,49,30.05,9.0,NNE,10.4,-,N/A,,Clear,20,2012-11-21 21:35:00
4:55 PM,64.4,46.4,52,30.05,10.0,North,10.4,-,N/A,,Clear,350,2012-11-21 21:55:00
5:15 PM,62.6,48.2,59,30.06,8.0,NNE,6.9,-,N/A,,Clear,30,2012-11-21 22:15:00
5:35 PM,60.8,48.2,63,30.06,9.0,NNE,6.9,-,N/A,,Clear,20,2012-11-21 22:35:00
5:55 PM,60.8,48.2,63,30.06,10.0,NNE,6.9,-,N/A,,Clear,30,2012-11-21 22:55:00
6:15 PM,59.0,48.2,67,30.07,10.0,NNE,5.8,-,N/A,,Clear,20,2012-11-21 23:15:00
6:55 PM,57.2,50.0,77,30.07,8.0,Calm,Calm,-,N/A,,Clear,0,2012-11-21 23:55:00
7:15 PM,55.4,48.2,77,30.07,9.0,Calm,Calm,-,N/A,,Clear,0,2012-11-22 00:15:00
7:55 PM,55.4,48.2,77,30.07,8.0,Calm,Calm,-,N/A,,Clear,0,2012-11-22 00:55:00
8:15 PM,53.6,48.2,82,30.08,9.0,Calm,Calm,-,N/A,,Clear,0,2012-11-22 01:15:00
8:35 PM,53.6,48.2,82,30.09,9.0,Calm,Calm,-,N/A,,Clear,0,2012-11-22 01:35:00
8:55 PM,53.6,48.2,82,30.09,8.0,Calm,Calm,-,N/A,,Clear,0,2012-11-22 01:55:00
9:15 PM,53.6,48.2,82,30.10,8.0,SSW,4.6,-,N/A,,Clear,210,2012-11-22 02:15:00
9:35 PM,51.8,48.2,88,30.10,8.0,Calm,Calm,-,N/A,,Clear,0,2012-11-22 02:35:00
9:55 PM,51.8,48.2,88,30.10,7.0,Calm,Calm,-,N/A,,Clear,0,2012-11-22 02:55:00
10:15 PM,53.6,48.2,82,30.10,8.0,Calm,Calm,-,N/A,,Clear,0,2012-11-22 03:15:00
10:35 PM,53.6,48.2,82,30.10,9.0,Calm,Calm,-,N/A,,Clear,0,2012-11-22 03:35:00
10:55 PM,51.8,48.2,88,30.10,8.0,Calm,Calm,-,N/A,,Clear,0,2012-11-22 03:55:00
11:15 PM,53.6,48.2,82,30.10,9.0,SW,4.6,-,N/A,,Clear,230,2012-11-22 04:15:00
11:35 PM,53.6,48.2,82,30.10,9.0,Calm,Calm,-,N/A,,Clear,0,2012-11-22 04:35:00
11:55 PM,53.6,48.2,82,30.10,9.0,Calm,Calm,-,N/A,,Clear,0,2012-11-22 04:55:00